千帆星座-109(QIANFAN-109)

导读

QIANFAN-109(NORAD编号68636)是中国上海垣信卫星科技(Spacesail)打造的千帆(G60星链)低轨互联网星座组网卫星,属于第七批组网卫星,于2026年4月发射入轨。千帆星座计划部署约14000颗低轨卫星,目标提供全球低延迟互联网接入服务,QIANFAN-109运行在约1060公里高度近极轨轨道(轨道倾角约89°),属于第一代千帆平板卫星,单星重量不超过300kg,配备相控阵天线,设计寿命7年,通信容量达5Gbps,为星座全球网络建设补充节点能力,推动低轨商业通信网络部署。

Basic Information
目录编号:
68636
目录名称:
QIANFAN-109
国际标识:
2026-075A
轨道中心:
EARTH
卫星名称:
千帆星座-109
卫星全名:
千帆星座-109(QIANFAN-109)
卫星状态:
在轨 (已飞行157 天)
发射日期:
2026-04-07 UTC
国别 :
中国 (CN)
星等 :
--
This satellite is enrolled in the Space Conjunction Data Service (SCDS) and the current flight risk assessment level is: No High Risk
Orbit Information
数据来源 国际轨道数据 AOE轨道数据
星历时间 2026-09-11T12:52:53+0800
10小时前
查看轨道信息
2026-09-10T00:00:00+0800
1天前
查看轨道信息
半长轴 7446.646km 7446.647km
偏心率 0.0002317 0.0002315
轨道倾角 88.988° 88.988°
近地点辐角 86.463° 87.168°
升交点赤经 312.238° 312.394°
平近点角 273.679° 3.313°
近地点 1066.783km 1066.786km
远地点 1070.235km 1070.234km
周期 106.586分钟 106.586分钟
每日圈数 13.5102 13.510196
Detailed Information
卫星平台:
109
覆盖范围:
全球
运营商:
上海垣信卫星科技有限公司
运营商所在国:
中国
使用方式:
暂无
Satellite Introduction
千帆星座,也被称为“G60星链”计划,是中国版“星链”的重要组成部分,旨在打造一个由1.4万多颗低轨宽频多媒体卫星构成的庞大星座。千帆星座计划由上海垣信卫星科技有限公司负责实施,于2023年启动建设。该项目是我国第二个低轨卫星大星座,旨在通过构建庞大的卫星网络,为全球用户提供高质量的通信和宽带互联网服务。
2D Orbit Map
3D Orbit Map
Orbit Altitude Analysis Chart
Orbit Inclination Analysis Chart
Orbit Comprehensive Analysis Chart
View Comprehensive Chart
Conjunction Data List
Event ID Objects TCA Miss Dist (km) Collision Risk Probability Collision Risk Index (CRI) Action
CDM_260912-174600-142006-863625
2026-09-12T
17:46:19+0000
2.789 km
极远距离
6.533496E-7 极低风险 0.31
Miss Distance Evolution Trend with All Objects
Collision Probability Evolution Trend with All Objects